W1FL Weather Reports


time (UTC)temp
C
wind
direction
speed
KPH
gust
KPH
rain 1hr
cm
rain 24hr
cm
rain mn
cm
humidity
%
barometer
mb
20260506193013 7 84 3.2 9.7 0.13 2.67 1.98 95 1006.3
20260506191513 7 83 3.2 9.7 0.08 2.62 1.93 95 1006.3
20260506190011 7 71 1.6 6.4 0.05 2.57 1.88 95 1006.5
20260506184511 7 40 3.2 9.7 0.10 2.59 1.85 95 1006.4
20260506183010 7 74 4.8 9.7 0.18 2.59 1.85 95 1006.5
20260506181513 7 51 3.2 14.5 0.20 2.59 1.85 96 1006.7
20260506180015 6 104 6.4 11.3 0.20 2.57 1.83 95 1007.0
20260506174506 6 99 3.2 14.5 0.15 2.49 1.75 95 1007.1
20260506173005 6 81 11.3 16.1 0.15 2.41 1.68 95 1007.0
20260506171504 7 81 8.0 14.5 0.18 2.39 1.65 95 1007.0
20260506170004 7 81 8.0 16.1 0.20 2.36 1.63 95 1006.9
20260506164502 7 103 6.4 12.9 0.23 2.31 1.57 95 1007.2
20260506163002 7 47 4.8 9.7 0.23 2.26 1.52 95 1007.0
20260506161501 7 105 1.6 6.4 0.23 2.21 1.45 95 1007.6
20260506160004 7 106 4.8 9.7 0.23 2.16 1.42 95 1007.2
20260506154600 7 45 1.6 11.3 0.18 2.08 1.35 95 1007.3
20260506153102 7 84 4.8 11.3 0.18 2.03 1.30 95 1007.1
20260506151558 7 74 4.8 12.9 0.15 1.98 1.24 95 1007.1
20260506150059 7 77 3.2 9.7 0.13 1.93 1.19 95 1007.3
20260506144557 7 93 3.2 6.4 0.13 1.88 1.14 95 1007.5
20260506143058 7 96 0.0 6.4 0.10 1.85 1.12 95 1007.8
20260506141611 7 84 3.2 9.7 0.10 1.83 1.09 95 1007.3
20260506140057 7 88 4.8 11.3 0.18 1.80 1.07 96 1007.4
20260506134556 7 55 1.6 12.9 0.18 1.75 1.02 95 1007.7
20260506133105 6 83 4.8 12.9 0.30 1.75 1.02 95 1007.7
20260506131557 6 95 3.2 16.1 0.33 1.73 0.99 95 1007.9
20260506130055 6 69 6.4 22.5 0.25 1.63 0.89 94 1007.3
20260506124552 6 41 1.6 20.9 0.28 1.57 0.84 94 1008.6
20260506123050 7 92 4.8 14.5 0.18 1.42 0.71 94 1008.3
20260506121558 7 84 8.0 14.5 0.15 1.40 0.66 94 1008.4
20260506120110 7 78 3.2 12.9 0.13 1.37 0.64 93 1008.4
20260506114546 7 38 3.2 12.9 0.08 1.30 0.56 91 1008.6
20260506113041 7 24 3.2 14.5 0.05 1.27 0.53 92 1007.9
20260506111539 8 18 4.8 11.3 0.05 1.24 0.51 94 1007.8
20260506110034 8 79 4.8 16.1 0.05 1.24 0.51 94 1007.7
20260506104532 8 76 6.4 14.5 0.03 1.22 0.48 94 1007.7
20260506103032 8 84 8.0 16.1 0.05 1.22 0.48 95 1007.8
20260506101528 8 74 9.7 16.1 0.05 1.19 0.46 95 1007.6
20260506100026 9 80 1.6 16.1 0.13 1.19 0.46 95 1008.3
20260506094532 9 113 6.4 12.9 0.15 1.19 0.46 95 1007.7
20260506093039 9 94 0.0 11.3 0.13 1.17 0.43 96 1008.3
20260506091523 10 99 3.2 11.3 0.13 1.14 0.41 95 1007.9
20260506090018 10 84 6.4 12.9 0.10 1.07 0.33 95 1008.0
20260506084517 10 86 4.8 12.9 0.15 1.04 0.30 95 1008.3
20260506083016 10 86 3.2 6.4 0.15 1.04 0.30 95 1008.3
20260506081516 10 86 3.2 9.7 0.13 1.02 0.28 96 1008.2
20260506073010 10 93 3.2 12.9 0.00 0.89 0.15 95 1007.9
20260506071509 10 82 4.8 12.9 0.00 0.89 0.15 95 1007.7
20260506061502 11 18 3.2 9.7 0.05 0.89 0.15 96 1008.0
20260506050103 11 283 0.0 4.8 0.08 0.84 0.10 94 1007.9
20260506044559 11 283 0.0 3.2 0.10 0.81 0.08 94 1007.6
20260506043051 11 283 1.6 4.8 0.15 0.81 0.08 93 1007.6
20260506041554 11 283 0.0 9.7 0.13 0.79 0.05 92 1007.7
20260506040046 12 188 0.0 3.2 0.15 0.76 0.03 91 1008.0
20260506034543 12 188 0.0 0.0 0.13 0.71 0.71 90 1007.7
20260506033041 13 221 0.0 9.7 0.08 0.66 0.66 89 1007.3
20260506031554 13 59 3.2 8.0 0.08 0.66 0.66 91 1006.9
20260506030048 13 225 0.0 11.3 0.03 0.61 0.61 94 1006.8
20260506024537 13 232 3.2 6.4 0.00 0.58 0.58 95 1006.3
20260506023036 13 271 0.0 1.6 0.00 0.58 0.58 95 1005.9
20260506021534 13 271 0.0 0.0 0.00 0.58 0.58 95 1006.1
20260506020033 13 271 0.0 1.6 0.00 0.58 0.58 94 1006.1
20260506014531 13 271 0.0 3.2 0.00 0.58 0.58 94 1006.0
20260506013028 13 271 0.0 4.8 0.00 0.58 0.58 93 1005.4
20260506011528 14 271 0.0 0.0 0.00 0.58 0.58 93 1005.3
20260506010028 14 271 0.0 4.8 0.00 0.58 0.58 93 1005.1
20260506004529 14 271 0.0 6.4 0.00 0.58 0.58 92 1005.0
20260506003025 15 272 0.0 0.0 0.00 0.58 0.58 92 1004.9
20260506001524 15 267 1.6 6.4 0.00 0.58 0.58 92 1004.6
20260506000024 15 254 0.0 4.8 0.00 0.58 0.58 91 1004.7
20260505234548 15 258 0.0 4.8 0.00 0.58 0.58 90 1004.6
20260505233022 15 257 0.0 9.7 0.00 0.58 0.58 90 1004.7
20260505231522 15 223 1.6 4.8 0.00 0.58 0.58 90 1004.0
20260505230022 15 189 1.6 4.8 0.00 0.58 0.58 92 1004.0
20260505224528 15 187 0.0 6.4 0.00 0.58 0.58 91 1004.2
20260505223020 15 192 1.6 12.9 0.00 0.58 0.58 90 1004.4
20260505221520 16 247 0.0 6.4 0.00 0.58 0.58 90 1003.8
20260505220020 16 236 0.0 6.4 0.00 0.58 0.58 91 1003.7
20260505214521 16 261 0.0 0.0 0.00 0.58 0.58 91 1003.9
20260505213017 16 221 1.6 8.0 0.30 0.58 0.58 91 1003.9
20260505211517 16 222 0.0 3.2 0.33 0.58 0.58 91 1003.9
20260505210017 16 221 0.0 8.0 0.33 0.58 0.58 89 1003.9
20260505204524 16 145 3.2 8.0 0.36 0.58 0.58 89 1003.5
20260505203015 16 263 8.0 20.9 0.10 0.25 0.25 87 1003.0
20260505201514 16 210 6.4 19.3 0.15 0.25 0.25 85 1002.3
20260505200022 17 194 3.2 16.1 0.20 0.25 0.25 86 1002.4
20260505194512 17 215 3.2 11.3 0.23 0.23 0.23 85 1002.2